Location: La Oliva
(42.2466°N, 2.9955°E)
Time: 07:18:58
(UTC+00:00)

ARGOS - Pass Details

Date: 22 April 2021
Orbit: 819 x 835 km, 98.4° (Epoch: 07 May)

Event Time Altitude Azimuth Distance (km) Brightness Sun altitude
Rises 18:59:04 0° 175° (S) 3,351 6.1 -4.6°
Reaches altitude 10° 19:01:26 10° 179° (S) 2,420 5.4 -5.0°
Maximum altitude 19:06:44 59° 259° (W) 945 3.8 -5.9°
Drops below altitude 10° 19:12:02 10° 339° (NNW) 2,428 6.3 -6.8°
Sets 19:14:26 0° 343° (NNW) 3,363 7.0 -7.2°
